Location: El Álamo
(40.2307°N, 3.9945°W)
Time: 04:40:54
(UTC+00:00)

Meteor 1-19 Rocket - Pass Details

Date: 19 May 2025
Orbit: 805 x 927 km, 81.2° (Epoch: 23 June)

Event Time Altitude Azimuth Distance (km) Brightness Sun altitude
Exits shadow 22:25:41 54° 117° (ESE) 1,113 4.4 -24.9°
Maximum altitude 22:26:15 57° 94° (E) 1,088 4.5 -24.9°
Drops below altitude 10° 22:32:09 10° 18° (NNE) 2,634 7.3 -25.4°
Sets 22:34:40 0° 14° (NNE) 3,574 8.2 -25.6°
